When you browse on this site, cookies collect data to enhance your experience and personalize the content and advertising you see.
Visit our Privacy Policy to learn more. By continuing to use the site, you agree to this use of cookies and data.

Stündliche Wetter Susa

Heute, 4 August, Dienstag

Zeit Temperatur Niederschläge Wind Luftdruck Luftfeuchtigkeit
00:00 +10°C° 0 mm 2 m/S 559 mmHg 92%
01:00 +10°C° 0 mm 2 m/S 559 mmHg 92%
02:00 +11°C° 0 mm 1 m/S 559 mmHg 91%
03:00 +11°C° 0 mm 1 m/S 559 mmHg 91%
04:00 +11°C° 0 mm 1 m/S 559 mmHg 91%
05:00 +12°C° 0 mm 2 m/S 559 mmHg 89%
06:00 +12°C° 0 mm 2 m/S 559 mmHg 86%
07:00 +12°C° 0 mm 2 m/S 560 mmHg 84%
08:00 +14°C° 0 mm 2 m/S 561 mmHg 75%
09:00 +16°C° 0 mm 2 m/S 562 mmHg 66%
10:00 +18°C° 0 mm 2 m/S 563 mmHg 57%
11:00 +19°C° 0.1 mm 2 m/S 563 mmHg 55%
12:00 +20°C° 0.1 mm 3 m/S 563 mmHg 54%
13:00 +20°C° 0.1 mm 3 m/S 562 mmHg 53%
14:00 +20°C° 0.5 mm 3 m/S 562 mmHg 59%
15:00 +19°C° 0.5 mm 2 m/S 561 mmHg 65%
16:00 +18°C° 0.5 mm 2 m/S 560 mmHg 71%
17:00 +16°C° 0.4 mm 2 m/S 559 mmHg 78%
18:00 +14°C° 0.4 mm 2 m/S 558 mmHg 86%
19:00 +12°C° 0.4 mm 2 m/S 558 mmHg 93%
20:00 +12°C° 0.1 mm 2 m/S 558 mmHg 93%
21:00 +12°C° 0.1 mm 2 m/S 559 mmHg 93%
22:00 +12°C° 0.1 mm 2 m/S 559 mmHg 93%
23:00 +10°C° 0 mm 2 m/S 559 mmHg 92%

Morgen, 5 August, Mittwoch

Zeit Temperatur Niederschläge Wind Luftdruck Luftfeuchtigkeit
00:00 +11°C° 0 mm 1 m/S 559 mmHg 92%
01:00 +11°C° 0 mm 1 m/S 558 mmHg 92%
02:00 +11°C° 0 mm 1 m/S 558 mmHg 91%
03:00 +11°C° 0 mm 1 m/S 558 mmHg 91%
04:00 +11°C° 0 mm 1 m/S 558 mmHg 90%
05:00 +11°C° 0 mm 1 m/S 558 mmHg 89%
06:00 +12°C° 0 mm 1 m/S 559 mmHg 88%
07:00 +12°C° 0 mm 1 m/S 559 mmHg 87%
08:00 +14°C° 0 mm 2 m/S 560 mmHg 79%
09:00 +16°C° 0 mm 2 m/S 561 mmHg 70%
10:00 +18°C° 0 mm 2 m/S 562 mmHg 61%
11:00 +18°C° 0.2 mm 2 m/S 562 mmHg 61%
12:00 +19°C° 0.2 mm 3 m/S 562 mmHg 60%
13:00 +19°C° 0.2 mm 3 m/S 561 mmHg 59%
14:00 +19°C° 0.5 mm 3 m/S 561 mmHg 63%
15:00 +18°C° 0.5 mm 2 m/S 560 mmHg 67%
16:00 +17°C° 0.5 mm 2 m/S 559 mmHg 70%
17:00 +15°C° 0.2 mm 2 m/S 559 mmHg 78%
18:00 +13°C° 0.2 mm 2 m/S 558 mmHg 85%
19:00 +12°C° 0.2 mm 2 m/S 557 mmHg 92%
20:00 +10°C° 0 mm 2 m/S 557 mmHg 92%
21:00 +10°C° 0 mm 2 m/S 558 mmHg 93%
22:00 +10°C° 0 mm 2 m/S 558 mmHg 94%
23:00 +11°C° 0 mm 1 m/S 558 mmHg 92%

übermorgen, 6 August, Donnerstag

Zeit Temperatur Niederschläge Wind Luftdruck Luftfeuchtigkeit
00:00 +11°C° 0 mm 1 m/S 558 mmHg 91%
01:00 +11°C° 0 mm 1 m/S 558 mmHg 89%
02:00 +11°C° 0 mm 1 m/S 558 mmHg 90%
03:00 +11°C° 0 mm 1 m/S 557 mmHg 90%
04:00 +11°C° 0 mm 1 m/S 557 mmHg 90%
05:00 +11°C° 0 mm 1 m/S 558 mmHg 90%
06:00 +11°C° 0 mm 1 m/S 558 mmHg 89%
07:00 +12°C° 0 mm 1 m/S 558 mmHg 88%
08:00 +13°C° 0.1 mm 1 m/S 559 mmHg 84%
09:00 +14°C° 0.1 mm 1 m/S 560 mmHg 80%
10:00 +15°C° 0.1 mm 1 m/S 560 mmHg 77%
11:00 +15°C° 0.1 mm 1 m/S 560 mmHg 76%
12:00 +15°C° 0.1 mm 1 m/S 559 mmHg 76%
13:00 +15°C° 0.1 mm 1 m/S 559 mmHg 76%
14:00 +15°C° 0.1 mm 1 m/S 559 mmHg 75%
15:00 +15°C° 0.1 mm 1 m/S 559 mmHg 74%
16:00 +16°C° 0.1 mm 2 m/S 558 mmHg 73%
17:00 +14°C° 0.1 mm 1 m/S 558 mmHg 79%
18:00 +13°C° 0.1 mm 1 m/S 558 mmHg 85%
19:00 +11°C° 0.1 mm 1 m/S 557 mmHg 91%
20:00 +10°C° 0 mm 2 m/S 557 mmHg 91%
21:00 +9°C° 0 mm 2 m/S 558 mmHg 92%
22:00 +9°C° 0 mm 2 m/S 558 mmHg 92%
23:00 +9°C° 0 mm 2 m/S 558 mmHg 92%

7 August, Freitag

Zeit Temperatur Niederschläge Wind Luftdruck Luftfeuchtigkeit
00:00 +9°C° 0 mm 2 m/S 558 mmHg 92%
01:00 +9°C° 0 mm 2 m/S 558 mmHg 92%
02:00 +9°C° 0 mm 2 m/S 557 mmHg 92%
03:00 +9°C° 0 mm 2 m/S 557 mmHg 91%
04:00 +10°C° 0 mm 1 m/S 557 mmHg 91%
05:00 +11°C° 0 mm 1 m/S 558 mmHg 90%
06:00 +11°C° 0 mm 1 m/S 558 mmHg 88%
07:00 +12°C° 0 mm 1 m/S 559 mmHg 86%
08:00 +13°C° 0 mm 1 m/S 560 mmHg 82%
09:00 +15°C° 0 mm 2 m/S 561 mmHg 77%
10:00 +16°C° 0 mm 2 m/S 561 mmHg 72%
11:00 +16°C° 0.1 mm 2 m/S 561 mmHg 70%
12:00 +17°C° 0.1 mm 2 m/S 561 mmHg 68%
13:00 +17°C° 0.1 mm 2 m/S 561 mmHg 66%
14:00 +17°C° 0.1 mm 2 m/S 560 mmHg 68%
15:00 +16°C° 0.1 mm 2 m/S 559 mmHg 69%
16:00 +16°C° 0.1 mm 2 m/S 558 mmHg 71%
17:00 +15°C° 0 mm 2 m/S 558 mmHg 77%
18:00 +13°C° 0 mm 2 m/S 558 mmHg 83%
19:00 +10°C° 0 mm 2 m/S 558 mmHg 89%
20:00 +10°C° 0 mm 2 m/S 558 mmHg 89%
21:00 +10°C° 0 mm 2 m/S 558 mmHg 89%
22:00 +10°C° 0 mm 2 m/S 559 mmHg 90%
23:00 +10°C° 0 mm 2 m/S 558 mmHg 89%

8 August, Samstag

Zeit Temperatur Niederschläge Wind Luftdruck Luftfeuchtigkeit
00:00 +10°C° 0 mm 2 m/S 558 mmHg 88%
01:00 +11°C° 0 mm 1 m/S 558 mmHg 87%
02:00 +11°C° 0.1 mm 1 m/S 558 mmHg 88%
03:00 +11°C° 0.1 mm 1 m/S 558 mmHg 88%
04:00 +11°C° 0.1 mm 1 m/S 558 mmHg 89%
05:00 +12°C° 0.1 mm 1 m/S 559 mmHg 89%
06:00 +12°C° 0.1 mm 1 m/S 559 mmHg 89%
07:00 +12°C° 0.1 mm 1 m/S 560 mmHg 89%
08:00 +13°C° 0 mm 1 m/S 560 mmHg 85%
09:00 +14°C° 0 mm 1 m/S 561 mmHg 81%
10:00 +15°C° 0 mm 1 m/S 562 mmHg 77%
11:00 +16°C° 0.1 mm 1 m/S 561 mmHg 76%
12:00 +16°C° 0.1 mm 1 m/S 561 mmHg 75%
13:00 +16°C° 0.1 mm 1 m/S 560 mmHg 75%
14:00 +17°C° 0 mm 2 m/S 560 mmHg 71%
15:00 +17°C° 0 mm 2 m/S 560 mmHg 67%
16:00 +18°C° 0 mm 2 m/S 560 mmHg 63%
17:00 +16°C° 0.1 mm 2 m/S 559 mmHg 73%
18:00 +14°C° 0.1 mm 2 m/S 558 mmHg 82%
19:00 +12°C° 0.1 mm 2 m/S 558 mmHg 91%
20:00 +10°C° 0 mm 2 m/S 558 mmHg 91%
21:00 +10°C° 0 mm 2 m/S 558 mmHg 91%
22:00 +10°C° 0 mm 2 m/S 559 mmHg 91%
23:00 +10°C° 0 mm 2 m/S 558 mmHg 91%

9 August, Sonntag

Zeit Temperatur Niederschläge Wind Luftdruck Luftfeuchtigkeit
00:00 +10°C° 0 mm 2 m/S 558 mmHg 91%
01:00 +10°C° 0 mm 2 m/S 558 mmHg 91%
02:00 +10°C° 0 mm 2 m/S 558 mmHg 90%
03:00 +10°C° 0 mm 2 m/S 558 mmHg 89%
04:00 +12°C° 0 mm 1 m/S 558 mmHg 89%
05:00 +12°C° 0.1 mm 1 m/S 559 mmHg 88%
06:00 +12°C° 0.1 mm 1 m/S 559 mmHg 88%
07:00 +12°C° 0.1 mm 1 m/S 559 mmHg 88%
08:00 +14°C° 0.1 mm 1 m/S 560 mmHg 84%
09:00 +15°C° 0.1 mm 1 m/S 561 mmHg 79%
10:00 +16°C° 0.1 mm 1 m/S 561 mmHg 75%
11:00 +16°C° 0.1 mm 1 m/S 561 mmHg 72%
12:00 +17°C° 0.1 mm 2 m/S 561 mmHg 68%
13:00 +18°C° 0.1 mm 2 m/S 561 mmHg 65%
14:00 +18°C° 0.1 mm 2 m/S 560 mmHg 66%
15:00 +18°C° 0.1 mm 2 m/S 560 mmHg 66%
16:00 +18°C° 0.1 mm 2 m/S 559 mmHg 67%
17:00 +16°C° 0.1 mm 2 m/S 558 mmHg 75%
18:00 +14°C° 0.1 mm 2 m/S 558 mmHg 84%
19:00 +12°C° 0.1 mm 2 m/S 557 mmHg 92%
20:00 +10°C° 0 mm 2 m/S 558 mmHg 92%
21:00 +10°C° 0 mm 2 m/S 558 mmHg 93%
22:00 +10°C° 0 mm 2 m/S 558 mmHg 93%
23:00 +10°C° 0 mm 2 m/S 558 mmHg 92%
Mehr zeigen